Home > Weather > Sola > Past weeks

Flag for Norway Past Weather in Sola, Norway — Yesterday and Last 2 Weeks

Now
63 °F

Sunny.


Feels Like: 63 °F
Forecast: 59 / 67 °F
Wind: 1 mph from North

Location: Stavanger / Sola

Current Time: Aug 25, 2016 at 8:46:12 PM

Latest Report: Aug 25, 2016 at 8:00 PM


Visibility: 5 mi

Pressure: 30.02 "Hg

Humidity: 94%

Dew Point: 61 °F

Location of SolaLocation

Past Weather in Sola — Graph

°F

Sola Temperature Yesterday

Maximum temperature yesterday: 70 °F (at 3:00 PM)
Minimum temperature yesterday: 58 °F (at 6:00 AM)
Average temperature yesterday: 64 °F

High & Low Weather Summary for the Past Weeks

 TemperatureHumidityPressure
High70 °F (Aug 24, 3:00 PM)98% (Aug 16, 8:00 AM)30.27 "Hg (Aug 16, 8:00 AM)
Low43 °F (Aug 11, 6:00 AM)52% (Aug 11, 2:00 PM)29.68 "Hg (Aug 20, 2:00 PM)
Average59 °F85%30.01 "Hg
* Reported Aug 10 7:00 PM — Aug 25 7:00 PM, Sola, Weather by CustomWeather, © 2016

Note: Actual official high and low records may vary slightly from our data, if they occured in-between our weather recording intervals... More about our weather records

Advertising

Sola Weather History for the Previous 24 Hours

Scroll right to see more
 ConditionsComfort  
Time TempWeatherWind HumidityBarometerVisibility
7:00 PM
Thu, Aug 25
64 °FScattered clouds.2 mph91%30.03 "Hg6 mi
6:00 PM64 °FOvercast.6 mph92%30.04 "Hg5 mi
5:00 PM65 °FFog.3 mph92%30.04 "Hg3 mi
4:00 PM66 °FPassing clouds.1 mph92%30.06 "Hg3 mi
3:00 PM64 °FRain showers. Overcast.2 mph95%30.05 "Hg3 mi
2:00 PM64 °FRain showers. Fog.2 mph95%30.09 "Hg3 mi
1:00 PM64 °FRain showers. Low clouds.2 mph96%30.08 "Hg2 mi
12:00 PM64 °FFog.3 mph95%30.08 "Hg2 mi
11:00 AM64 °FFog.3 mph95%30.08 "Hg2 mi
10:00 AM64 °FFog.No wind97%30.08 "Hg2 mi
9:00 AM63 °FFog.1 mph98%30.08 "Hg1 mi
8:00 AM62 °FLow clouds.1 mph98%30.07 "Hg1 mi
7:00 AM62 °FDense fog.2 mph98%30.08 "Hg1 mi
6:00 AM62 °FDense fog.1 mph98%30.09 "Hg1 mi
5:00 AM62 °FFog.1 mph98%30.11 "Hg3 mi
3:00 AM62 °FDense fog.1 mph98%30.11 "Hg1 mi
2:00 AM62 °FClear.1 mph98%30.11 "Hg1 mi
1:00 AM62 °FDrizzle. Dense fog.1 mph98%30.12 "Hg1 mi
12:00 AM62 °FDrizzle. Dense fog.2 mph97%30.11 "Hg1 mi
11:00 PM
Wed, Aug 24
62 °FLow clouds.3 mph97%30.12 "Hg1 mi
10:00 PM66 °FPassing clouds.3 mph89%30.11 "Hg4 mi
9:00 PM66 °FPassing clouds.5 mph87%30.09 "Hg4 mi
8:00 PM67 °FOvercast.8 mph86%30.09 "Hg4 mi
Weather by CustomWeather, © 2016

See weather overviewHow to use our weather pages